Tracking 27420 objects as of 28-May-2023
HD Live streaming from Space Station
objects crossing your sky now

STARLINK-30095

Track STARLINK-30095 now!
10-day predictions
STARLINK-30095 is classified as:


NORAD ID: 56289
Int'l Code: 2023-056D
Perigee: 352.1 km
Apogee: 354.2 km
Inclination: 43.0 °
Period: 91.5 minutes
Semi major axis: 6724 km
RCS: Unknown
Launch date: April 19, 2023
Source: United States (US)
Launch site: AIR FORCE EASTERN TEST RANGE (AFETR)
Your satellite tracking list
Your tracking list is empty




NASA's NSSDC Master Catalog

Two Line Element Set (TLE):
1 56289U 23056D   23148.25001157 -.00463954  00000-0 -32605-2 0  9996
2 56289  42.9997 327.0366 0001590 276.5976  83.1906 15.74512218  1291
Source of the keplerian elements: AFSPC